This demonstration page uses our WeatherBlox Daily Observations layout. Learn more.

Left ArrowRight Arrow

44.89941, -97.11507

Hourly Observations for May 7, 2019

Temp ( °F °C ) Dew Point ( °F °C ) Humidity (%) Winds ( mph kmh ) Pressure ( in mb ) Visibility ( mi km ) Precip ( " mm )
12:53 am 00:53 Clear 30 -1.1 28 -2.2 92 92 NNE 8 13 30.26 1025 10 16 0.00 0.00
1:53 am 01:53 Clear 35 1.7 27 -2.8 72 72 NE 8 13 30.24 1024 10 16 0.00 0.00
2:53 am 02:53 Clear 34 1.1 27 -2.8 76 76 ENE 3 6 30.31 1027 10 16 0.00 0.00
3:53 am 03:53 Clear 30 -1.1 25 -3.9 82 82 N 3 6 30.31 1026 10 16 0.00 0.00
4:53 am 04:53 Clear 28 -2.2 24 -4.4 85 85 N 7 11 30.30 1026 10 16 0.00 0.00
5:53 am 05:53 Clear 28 -2.2 23 -5 81 81 NNE 5 7 30.30 1026 10 16 0.00 0.00
6:53 am 06:53 Sunny 33 0.6 24 -4.4 70 70 Calm 30.33 1027 10 16 0.00 0.00
7:53 am 07:53 Sunny 37 2.8 27 -2.8 67 67 NE 8 13 30.34 1027 10 16 0.00 0.00
8:53 am 08:53 Sunny 41 5 27 -2.8 57 57 NE 12 19 30.33 1027 10 16 0.00 0.00
9:53 am 09:53 Sunny 45 7.2 28 -2.2 52 52 NE 12 19 30.31 1027 10 16 0.00 0.00
10:53 am 10:53 Sunny 50 10 28 -2.2 43 43 NE 13 20 30.29 1026 10 16 0.00 0.00
11:53 am 11:53 Sunny 50 10 25 -3.9 38 38 NE 12 19 30.27 1025 10 16 0.00 0.00
12:53 pm 12:53 Sunny 53 11.7 26 -3.3 35 35 E 12 19 30.27 1025 10 16 0.00 0.00
1:53 pm 13:53 Sunny 53 11.7 27 -2.8 37 37 E 13 20 30.25 1024 10 16 0.00 0.00
2:53 pm 14:53 Mostly Sunny 54 12.2 27 -2.8 35 35 E 10 17 30.23 1024 10 16 0.00 0.00
3:53 pm 15:53 Mostly Cloudy 54 12.2 28 -2.2 37 37 E 7 11 30.22 1023 10 16 0.00 0.00
4:53 pm 16:53 Cloudy 55 12.8 28 -2.2 35 35 ESE 6 9 30.18 1022 10 16 0.00 0.00
5:53 pm 17:53 Cloudy with Light Rain 52 11.1 33 0.6 49 49 SE 10 17 30.18 1022 10 16 0.00 0.03
6:53 pm 18:53 Cloudy 52 11.1 32 0 47 47 E 6 9 30.17 1022 10 16 0.00 0.03
7:53 pm 19:53 Cloudy 51 10.6 33 0.6 50 50 ENE 3 6 30.15 1021 10 16 0.00 0.00
8:53 pm 20:53 Cloudy 49 9.4 38 3.3 66 66 SSE 7 11 30.16 1021 10 16 0.00 0.03
9:53 pm 21:53 Cloudy 49 9.4 39 3.9 69 69 E 6 9 30.16 1021 10 16 0.00 0.03
10:53 pm 22:53 Cloudy with Light Rain 46 7.8 41 5 83 83 ENE 9 15 30.14 1021 9 14 0.04 1.02
11:53 pm 23:53 Cloudy with Light Rain 45 7.2 40 4.4 83 83 ENE 10 17 30.13 1020 10 16 0.01 0.25

Powered by AerisWeather